Regional Weather Roundup
Issued by NWS Green Bay, WI

Home | Current Version | Previous Version | Graphics & Text | Print | Product List | Glossary Off
Versions: 1 2 3 4 5 6 7 8 9 10 11 12 13 14 15 16 17 18 19 20 21 22 23 24 25 26 27 28 29 30 31 32 33 34 35 36 37 38 39 40 41 42 43 44 45 46 47 48 49 50

094
ASUS43 KGRB 081400
RWRGRB

NORTH-CENTRAL AND NORTHEAST WISCONSIN REGIONAL WEATHER ROUNDUP
NATIONAL WEATHER SERVICE GREEN BAY WI
800 AM CST THU DEC 08 2016

WIZ005-009-010>012-018-019-081500-
NORTH CENTRAL WISCONSIN

CITY           SKY/WX    TMP DP  RH WIND       PRES   REMARKS
IRONWOOD       NOT AVBL
MANITOWISH WTR NOT AVBL
ARBOR VITAE    NOT AVBL
EAGLE RIVER    NOT AVBL
LAND O LAKES   NOT AVBL
RHINELANDER    LGT SNOW  20  17  88 W10       30.01R FOG     WCI   9
PHILLIPS       NOT AVBL
ANTIGO         NOT AVBL
TOMAHAWK       NOT AVBL
MERRILL        NOT AVBL
$$

WIZ013-073-081500-
NORTHEAST WISCONSIN

CITY           SKY/WX    TMP DP  RH WIND       PRES   REMARKS
IRON MOUNTAIN  CLOUDY    20  13  74 W8        29.94R
MARINETTE      NOT AVBL
$$

WIZ017-030-035>037-045-081500-
CENTRAL WISCONSIN

CITY           SKY/WX    TMP DP  RH WIND       PRES   REMARKS
MEDFORD        NOT AVBL
WAUSAU         CLOUDY    16  13  88 W9        30.07R WCI   4
MOSINEE        LGT SNOW  16  14  93 W10       30.09R WCI   3
MARSHFIELD     CLOUDY    15  11  83 W13       30.10R WCI   1
WISC RAPIDS    LGT SNOW  16  12  84 W12       30.15R FOG     WCI   3
STEVENS POINT  NOT AVBL
WAUPACA        NOT AVBL
SHAWANO        NOT AVBL
CLINTONVILLE   NOT AVBL
WAUTOMA        NOT AVBL
$$

WIZ038-039-048-051-081500-
FOX VALLEY

CITY           SKY/WX    TMP DP  RH WIND       PRES   REMARKS
NWS GREEN BAY  CLOUDY    20  14  77 W18       30.06R WCI   5
APPLETON       LGT SNOW  18  10  73 W18G25    30.06R HAZE    WCI   2
OSHKOSH        CLOUDY    17  11  77 W14G24    30.10R HAZE    WCI   3
FOND DU LAC    FLURRIES  18   9  68 W15G23    30.12R WCI   4
$$

WIZ022-050-052-081500-
EAST CENTRAL WISCONSIN

CITY           SKY/WX    TMP DP  RH WIND       PRES   REMARKS
EPHRAIM        NOT AVBL
WASHINGTON ISL NOT AVBL
STURGEON BAY   NOT AVBL
MANITOWOC      NOT AVBL
SHEBOYGAN      LGT SNOW  18  11  74 W16G24    30.09R WCI   3
$$

LMZ563-521-522-541>543-081500-
LAKESHORE

STATION/POSITION TIME  TEMP    WIND        PRES    VSBY  WAVE
                       AIR SEA DIR/SP/G                  HT/PER
                 (UTC) (F)     (DEG/KT/KT) (MB)    (MI)  (FT/S)
SHEBOYGAN LKSHOR 1300   20     260/ 17/ 24 1019.4R
KEWAUNEE LKSHORE 1330   19     310/ 17/ 24 1016.0S
NORTHPORT PIER   1340   24     280/ 11/ 20 1014.6R
SISTER BAY LKSHO 1251   24     300/ 23/ 28   N/A
CHAMBERS ISLAND  1340   22     230/ 12/ 22 1014.6R
MENOMINEE LKSHOR 1330   20     250/ 14/ 20 1014.6R
$$




USA.gov is the U.S. government's official web portal to all federal, state and local government web resources and services.